Tracking 28792 objects as of 23-Apr-2024
HD Live streaming from Space Station
objects crossing your sky now

ARIANE 5 R/B

Track ARIANE 5 R/B now!


NORAD ID: 36746
Int'l Code: 2010-032C
Perigee: 289.1 km
Apogee: 32,518.0 km
Inclination: 2.0 °
Period: 570.1 minutes
Semi major axis: 22774 km
RCS: 22.3476 m2 (large)
Launch date: June 26, 2010
Source: France (FR)
Launch site: FRENCH GUIANA (FRGUI)

Note: This is a ROCKET BODY
Your satellite tracking list
Your tracking list is empty




NASA's NSSDC Master Catalog

Two Line Element Set (TLE):
1 36746U 10032C   24113.38567062  .00001856  00000-0  75181-3 0  9995
2 36746   1.9853  11.8586 7075646 295.6515   9.4405  2.52597638121396
Source of the keplerian elements: AFSPC